Regional Weather Roundup
Issued by NWS

Home | Current Version | Previous Version | Text Only | Print | Product List | Glossary On
Versions: 1 2 3 4 5 6 7 8 9 10 11 12 13 14 15 16 17 18 19 20 21 22 23 24 25 26 27 28 29 30 31 32 33 34 35 36 37 38 39 40 41 42 43 44 45 46 47 48 49 50
000
ASUS43 KBIS 171510
RWRND

NORTH DAKOTA REGIONAL WEATHER ROUNDUP
NATIONAL WEATHER SERVICE BISMARCK ND
900 AM CST TUE JAN 17 2017

NOTE: "FAIR" INDICATES FEW OR NO CLOUDS BELOW 12,000 FEET WITH NO
SIGNIFICANT WEATHER AND/OR OBSTRUCTIONS TO VISIBILITY.


NDZ001>003-009>011-017-171600-
NORTHWEST NORTH DAKOTA

CITY           SKY/WX    TMP DP  RH WIND       PRES   REMARKS
WILLISTON      FAIR      12   6  77 SE5       29.80S WCI   4
MINOT          FAIR      17   9  70 S8        29.79F WCI   7
MINOT AFB      CLOUDY    15   8  73 S12       29.78F WCI   2
$$

NDZ018>021-031>035-040>046-171600-
SOUTHWEST NORTH DAKOTA

CITY           SKY/WX    TMP DP  RH WIND       PRES   REMARKS
BISMARCK       FAIR       3   0  87 CALM      29.93F
DICKINSON      FAIR      18   9  68 S14       29.81S WCI   4
GARRISON         N/A      5   2  87 S8        29.85R WCI  -8
HETTINGER ARPT CLOUDY    13   6  74 SW7       29.90R WCI   3
$$

NDZ004>008-012>016-024-026-027-054-171600-
NORTHEAST NORTH DAKOTA

CITY           SKY/WX    TMP DP  RH WIND       PRES   REMARKS
GRAND FORKS    CLOUDY     4   0  83 S8        29.92F WCI  -9
GRND FRKS AFB  CLOUDY     7   3  84 S9        29.91F WCI  -6
DEVILS LAKE    FAIR       6   3  87 S3        29.89S
$$

NDZ022-023-025-028>030-036>039-047>053-171600-
SOUTHEAST NORTH DAKOTA

CITY           SKY/WX    TMP DP  RH WIND       PRES   REMARKS
FARGO          PTCLDY     6   3  87 S8        29.97S WCI  -7
JAMESTOWN      FAIR       7   6  96 SW5       29.92F WCI  -2
$$




USA.gov is the U.S. government's official web portal to all federal, state and local government web resources and services.